TimeCST,TemperatureF,Dew PointF,Humidity,Sea Level PressureIn,VisibilityMPH,Wind Direction,Wind SpeedMPH,Gust SpeedMPH,PrecipitationIn,Events,Conditions,WindDirDegrees,DateUTC
12:56 AM,27.0,24.1,89,30.18,8.0,Calm,Calm,-,N/A,,Clear,0,2013-11-03 05:56:00
1:56 AM,25.0,21.9,88,30.19,8.0,Calm,Calm,-,N/A,,Clear,0,2013-11-03 06:56:00
1:56 AM,26.1,23.0,88,30.22,9.0,Calm,Calm,-,N/A,,Clear,0,2013-11-03 07:56:00
2:56 AM,28.0,25.0,88,30.22,9.0,Calm,Calm,-,N/A,,Clear,0,2013-11-03 08:56:00
3:46 AM,26.6,24.8,93,30.22,7.0,Calm,Calm,-,N/A,,Scattered Clouds,0,2013-11-03 09:46:00
3:56 AM,27.0,24.1,89,30.23,6.0,Calm,Calm,-,N/A,,Partly Cloudy,0,2013-11-03 09:56:00
4:06 AM,24.8,23.0,93,30.22,1.8,Calm,Calm,-,N/A,,Partly Cloudy,0,2013-11-03 10:06:00
4:15 AM,24.8,21.2,86,30.22,3.0,Calm,Calm,-,N/A,,Clear,0,2013-11-03 10:15:00
4:56 AM,25.0,21.9,88,30.24,7.0,Calm,Calm,-,N/A,,Clear,0,2013-11-03 10:56:00
5:04 AM,24.8,21.2,86,30.23,9.0,Calm,Calm,-,N/A,,Scattered Clouds,0,2013-11-03 11:04:00
5:13 AM,24.8,21.2,86,30.24,2.5,Calm,Calm,-,N/A,,Mostly Cloudy,0,2013-11-03 11:13:00
5:16 AM,24.8,21.2,86,30.24,0.8,Calm,Calm,-,N/A,,Mist,0,2013-11-03 11:16:00
5:27 AM,24.8,23.0,93,30.24,0.2,Calm,Calm,-,N/A,Fog,Light Freezing Fog,0,2013-11-03 11:27:00
5:45 AM,26.6,24.8,93,30.24,0.5,Calm,Calm,-,N/A,Fog,Light Freezing Fog,0,2013-11-03 11:45:00
5:49 AM,26.6,24.8,93,30.24,0.2,Calm,Calm,-,N/A,Fog,Light Freezing Fog,0,2013-11-03 11:49:00
5:56 AM,26.1,25.0,96,30.25,0.2,Calm,Calm,-,N/A,Fog,Light Freezing Fog,0,2013-11-03 11:56:00
6:21 AM,26.6,24.8,93,30.25,0.5,Calm,Calm,-,N/A,Fog,Light Freezing Fog,0,2013-11-03 12:21:00
6:32 AM,24.8,24.8,100,30.24,1.0,East,3.5,-,N/A,,Mist,90,2013-11-03 12:32:00
6:39 AM,24.8,23.0,93,30.24,0.5,East,3.5,-,N/A,Fog,Light Freezing Fog,90,2013-11-03 12:39:00
6:47 AM,24.8,23.0,93,30.24,1.0,Calm,Calm,-,N/A,,Mist,0,2013-11-03 12:47:00
6:56 AM,25.0,23.0,92,30.26,3.0,Calm,Calm,-,N/A,,Mostly Cloudy,0,2013-11-03 12:56:00
7:04 AM,24.8,21.2,86,30.24,1.8,Calm,Calm,-,N/A,,Mostly Cloudy,0,2013-11-03 13:04:00
7:24 AM,26.6,24.8,93,30.26,2.5,Calm,Calm,-,N/A,,Scattered Clouds,0,2013-11-03 13:24:00
7:34 AM,28.4,26.6,93,30.26,4.0,Calm,Calm,-,N/A,,Partly Cloudy,0,2013-11-03 13:34:00
7:56 AM,28.9,27.0,92,30.28,6.0,Calm,Calm,-,N/A,,Clear,0,2013-11-03 13:56:00
8:56 AM,34.0,32.0,92,30.28,8.0,East,4.6,-,N/A,,Clear,100,2013-11-03 14:56:00
9:56 AM,42.1,36.0,79,30.27,10.0,East,8.1,-,N/A,,Clear,90,2013-11-03 15:56:00
10:56 AM,48.0,34.0,58,30.26,10.0,South,11.5,-,N/A,,Clear,170,2013-11-03 16:56:00
11:56 AM,50.0,33.1,52,30.23,10.0,SSE,13.8,19.6,N/A,,Clear,150,2013-11-03 17:56:00
12:56 PM,51.1,33.1,50,30.20,10.0,SSE,12.7,18.4,N/A,,Clear,160,2013-11-03 18:56:00
1:56 PM,52.0,30.9,45,30.18,10.0,SSE,12.7,21.9,N/A,,Clear,160,2013-11-03 19:56:00
2:56 PM,51.1,30.9,46,30.17,10.0,SSE,16.1,21.9,N/A,,Clear,150,2013-11-03 20:56:00
3:56 PM,50.0,32.0,50,30.16,10.0,SE,11.5,-,N/A,,Clear,140,2013-11-03 21:56:00
4:56 PM,46.9,32.0,56,30.15,10.0,SE,9.2,-,N/A,,Clear,130,2013-11-03 22:56:00
5:56 PM,46.0,30.9,56,30.15,10.0,SE,8.1,-,N/A,,Clear,130,2013-11-03 23:56:00
6:56 PM,44.1,33.1,65,30.17,10.0,ESE,6.9,-,N/A,,Clear,110,2013-11-04 00:56:00
7:56 PM,42.1,34.0,73,30.17,10.0,East,8.1,-,N/A,,Clear,100,2013-11-04 01:56:00
8:56 PM,45.0,34.0,65,30.16,10.0,ESE,10.4,-,N/A,,Clear,110,2013-11-04 02:56:00
9:56 PM,45.0,33.1,63,30.15,10.0,SE,10.4,-,N/A,,Clear,130,2013-11-04 03:56:00
10:56 PM,46.0,34.0,63,30.14,10.0,SE,11.5,-,N/A,,Clear,130,2013-11-04 04:56:00